FENGYUN 1C DEB

Satellite information

Favourite Embed

Satellite Type and Status

DEBRISIN ORBIT

Key statistics

Satellite FENGYUN 1C DEB at a glance.

Uptime

9495

Days in orbit

Revolutions

≈ 14.0

Per day

Orbit

SSO

Sun Synchronous Orbit

Inclination

98.6

Latest

Satellite identification and parameters

Extended collection of information and parameters for FENGYUN 1C DEB.

Object identification

Identified? True

Debris? True

Object name: FENGYUN 1C DEB

International designator: 1999-025BBE

Object number (NORAD): 30964

Object ID (CCSDS): 30964

Country: PEOPLES REPUBLIC OF CHINA (PRC)

Current information (Y/N): Y

RCS size: SMALL

Orbital parameters

Period: 102.912 minutes

Inclination: 98.6445 deg

SMA: 7274.511 km

Apoapsis: 1001.285 km

Periapsis: 791.467 km

RAAN: 106.6957 deg

Eccentricy: 0.0144215

Argument of periapsis: 126.9256 deg

Mean anomaly: 23.9239 deg

Mean motion: 13.99255633 rev/day

Mean motion (dot): 0.00002263 rev/day2

B* drag term: 0.0014502 1/REarth

Two-line elements (TLE)

Creation date: May 8, 2025, 3:01 a.m.

Reference frame: TEME

Reference center: EARTH

Epoch: May 7, 2025, 10:19 a.m. UTC

TLE line 0: 0 FENGYUN 1C DEB

TLE line 1: 1 30964U 99025BBE 25127.42997341 .00002263 00000-0 14502-2 0 9990

TLE line 2: 2 30964 98.6445 106.6957 0144215 126.9256 23.9239 13.99255633923279

Live tracking on map

Real-time ground track for satellite FENGYUN 1C DEB.

In-orbit conjunctions

A list of the most updated potential collisions computed for object FENGYUN 1C DEB.

Target Orbit TCA Probability of collision Miss distance Type
COSMOS 1344 LEO 2024-12-31 04:39:28 0.0001143766 686.0 (m) PAYLOAD
ALEXIS LEO 2024-11-29 19:59:50 0.0001125326 598.0 (m) PAYLOAD
SL-8 R/B LEO 2024-10-28 03:57:35 0.0001234208 602.0 (m) ROCKET BODY
SL-8 R/B LEO 2024-10-02 20:09:11 0.0002598276 216.0 (m) ROCKET BODY

Associated space launch

Chinese polar orbiting meteorological satellite

FENGYUN 1C DEB was lifted into orbit during the mission ‘Long March 4B | Feng Yun 1C’, on board a Long March 4B space rocket.

The launch took place on May 10, 1999, 1:33 a.m. from Launch Complex 7.

For more information about the launch, click the button.

Launch to space Long March 4B | Feng Yun 1C
Long March 4B | Feng Yun 1C

Agency: N/A

Status: Launch Successful

Launch date: May 10, 1999, 1:33 a.m. UTC

Rocket: Long March 4B

Launch pad: Launch Complex 7

Location: Taiyuan Satellite Launch Center, People's Republic of China

...

Latest news about this satellite

There are no fresh news available about this satellite. Check back as we update our databases every day.


Newsletter sign-up

Weekly statistics, charts and insights to help you stay on top of the space industry.